Location: Bastelaar
(51.0950°N, 3.8602°E)
Time: 17:02:06
(UTC+00:00)

CZ-4C R/B - Pass Details

Date: 18 November 2025
Orbit: 487 x 1493 km, 63.4° (Epoch: 12 December)

Event Time Altitude Azimuth Distance (km) Brightness Sun altitude
Rises 18:44:13 0° 294° (WNW) 3,165 6.3 -26.6°
Reaches altitude 10° 18:46:46 10° 307° (NW) 2,391 5.2 -27.0°
Maximum altitude 18:51:27 26° 4° (N) 1,763 3.8 -27.7°
Enters shadow 18:52:07 26° 14° (NNE) 1,815 3.8 -27.8°
